| time (UTC) | temp F | wind direction | speed MPH | gust MPH | rain 1hr in | rain 24hr in | rain mn in | humidity % | barometer mb |
| 20260903081803 | 69 | 53 | 0.0 | 0.0 | 0.00 | 0.00 | 0.00 | 74 | 1023.4 |
| 20260903081304 | 68 | 53 | 0.0 | 0.0 | 0.00 | 0.00 | 0.00 | 75 | 1023.4 |
| 20260903080804 | 67 | 53 | 0.0 | 0.0 | 0.00 | 0.00 | 0.00 | 78 | 1023.4 |
| 20260903080303 | 67 | 53 | 0.0 | 0.0 | 0.00 | 0.00 | 0.00 | 79 | 1023.4 |
| 20260903075804 | 67 | 26 | 0.0 | 2.0 | 0.00 | 0.00 | 0.00 | 79 | 1023.4 |
| 20260903075306 | 66 | 135 | 0.0 | 0.0 | 0.00 | 0.00 | 0.00 | 80 | 1023.4 |
| 20260903073803 | 65 | 74 | 0.0 | 0.0 | 0.00 | 0.00 | 0.00 | 80 | 1023.4 |
| 20260903073303 | 65 | 164 | 0.0 | 1.0 | 0.00 | 0.00 | 0.00 | 81 | 1023.4 |
| 20260903072803 | 64 | 130 | 0.0 | 0.0 | 0.00 | 0.00 | 0.00 | 82 | 1023.4 |
| 20260903072306 | 63 | 101 | 0.0 | 1.0 | 0.00 | 0.00 | 0.00 | 84 | 1023.4 |
| 20260903071804 | 63 | 52 | 0.0 | 2.0 | 0.00 | 0.00 | 0.00 | 84 | 1023.4 |
| 20260903071303 | 63 | 121 | 0.0 | 0.0 | 0.00 | 0.00 | 0.00 | 85 | 1023.4 |
| 20260903070804 | 62 | 121 | 0.0 | 0.0 | 0.00 | 0.00 | 0.00 | 85 | 1023.2 |
| 20260903065804 | 61 | 88 | 0.0 | 1.0 | 0.00 | 0.00 | 0.00 | 86 | 1023.2 |
| 20260903065306 | 61 | 99 | 0.0 | 0.0 | 0.00 | 0.00 | 0.00 | 87 | 1023.2 |
| 20260903063804 | 59 | 107 | 0.0 | 1.0 | 0.00 | 0.00 | 0.00 | 92 | 1023.4 |
| 20260903063304 | 58 | 107 | 0.0 | 2.0 | 0.00 | 0.00 | 0.00 | 94 | 1023.4 |
| 20260903062804 | 57 | 186 | 0.0 | 1.0 | 0.00 | 0.00 | 0.00 | 95 | 1023.3 |
| 20260903062306 | 57 | 186 | 0.0 | 2.0 | 0.00 | 0.00 | 0.00 | 97 | 1023.2 |
| 20260903061804 | 56 | 186 | 0.0 | 1.0 | 0.00 | 0.00 | 0.00 | 98 | 1023.2 |
| 20260903061303 | 56 | 226 | 0.0 | 2.0 | 0.00 | 0.00 | 0.00 | 100 | 1023.2 |
| 20260903060804 | 55 | 227 | 0.0 | 0.0 | 0.00 | 0.00 | 0.00 | 100 | 1023.3 |
| 20260903060304 | 55 | 227 | 0.0 | 0.0 | 0.00 | 0.00 | 0.00 | 100 | 1023.3 |
| 20260903055805 | 55 | 227 | 0.0 | 1.0 | 0.00 | 0.00 | 0.00 | 100 | 1023.3 |
| 20260903055306 | 54 | 227 | 0.0 | 0.0 | 0.00 | 0.00 | 0.00 | 100 | 1023.3 |
| 20260903054803 | 54 | 227 | 0.0 | 0.0 | 0.00 | 0.00 | 0.00 | 100 | 1023.3 |
| 20260903054304 | 53 | 227 | 0.0 | 0.0 | 0.00 | 0.00 | 0.00 | 100 | 1023.3 |
| 20260903053803 | 53 | 341 | 0.0 | 0.0 | 0.00 | 0.00 | 0.00 | 100 | 1023.3 |
| 20260903052306 | 52 | 341 | 0.0 | 0.0 | 0.00 | 0.00 | 0.00 | 100 | 1023.0 |
| 20260903050303 | 52 | 341 | 0.0 | 0.0 | 0.00 | 0.00 | 0.00 | 100 | 1022.5 |
| 20260903045804 | 52 | 341 | 0.0 | 0.0 | 0.00 | 0.00 | 0.00 | 100 | 1022.5 |
| 20260903045306 | 53 | 341 | 0.0 | 0.0 | 0.00 | 0.00 | 0.00 | 100 | 1022.5 |
| 20260903044803 | 53 | 341 | 0.0 | 0.0 | 0.00 | 0.00 | 0.00 | 100 | 1022.5 |
| 20260903043804 | 53 | 341 | 0.0 | 0.0 | 0.00 | 0.00 | 0.00 | 100 | 1022.5 |
| 20260903043304 | 53 | 341 | 0.0 | 0.0 | 0.00 | 0.00 | 0.00 | 100 | 1022.5 |
| 20260903042306 | 53 | 341 | 0.0 | 0.0 | 0.00 | 0.00 | 0.00 | 100 | 1022.5 |
| 20260903041803 | 53 | 341 | 0.0 | 0.0 | 0.00 | 0.00 | 0.00 | 100 | 1022.7 |
| 20260903041304 | 52 | 341 | 0.0 | 0.0 | 0.00 | 0.00 | 0.00 | 100 | 1022.7 |
| 20260903040804 | 52 | 341 | 0.0 | 0.0 | 0.00 | 0.00 | 0.00 | 100 | 1022.9 |
| 20260903040303 | 52 | 341 | 0.0 | 0.0 | 0.00 | 0.00 | 0.00 | 100 | 1022.9 |
| 20260903035804 | 53 | 341 | 0.0 | 0.0 | 0.00 | 0.00 | 0.00 | 100 | 1022.9 |
| 20260903034804 | 53 | 341 | 0.0 | 0.0 | 0.00 | 0.00 | 0.00 | 100 | 1022.8 |
| 20260903034304 | 53 | 341 | 0.0 | 0.0 | 0.00 | 0.00 | 0.00 | 100 | 1022.9 |
| 20260903033804 | 53 | 341 | 0.0 | 0.0 | 0.00 | 0.00 | 0.00 | 100 | 1022.9 |
| 20260903033304 | 53 | 341 | 0.0 | 0.0 | 0.00 | 0.00 | 0.00 | 100 | 1022.9 |
| 20260903032804 | 53 | 341 | 0.0 | 0.0 | 0.00 | 0.00 | 0.00 | 100 | 1022.9 |
| 20260903031804 | 53 | 341 | 0.0 | 0.0 | 0.00 | 0.00 | 0.00 | 100 | 1022.9 |
| 20260903031304 | 53 | 341 | 0.0 | 0.0 | 0.00 | 0.00 | 0.00 | 100 | 1022.9 |
| 20260903030804 | 53 | 341 | 0.0 | 0.0 | 0.00 | 0.00 | 0.00 | 100 | 1022.8 |
| 20260903030303 | 54 | 341 | 0.0 | 0.0 | 0.00 | 0.00 | 0.00 | 100 | 1022.8 |
| 20260903025803 | 54 | 341 | 0.0 | 0.0 | 0.00 | 0.00 | 0.00 | 100 | 1022.8 |
| 20260903023804 | 53 | 341 | 0.0 | 0.0 | 0.00 | 0.00 | 0.00 | 100 | 1022.8 |
| 20260903023303 | 53 | 341 | 0.0 | 0.0 | 0.00 | 0.00 | 0.00 | 100 | 1022.8 |
| 20260903022803 | 53 | 341 | 0.0 | 0.0 | 0.00 | 0.00 | 0.00 | 100 | 1022.8 |
| 20260903022306 | 53 | 341 | 0.0 | 0.0 | 0.00 | 0.00 | 0.00 | 100 | 1022.7 |
| 20260903020803 | 53 | 341 | 0.0 | 0.0 | 0.00 | 0.00 | 0.00 | 100 | 1022.7 |
| 20260903020303 | 53 | 341 | 0.0 | 0.0 | 0.00 | 0.00 | 0.00 | 100 | 1022.7 |
| 20260903015803 | 54 | 341 | 0.0 | 0.0 | 0.00 | 0.00 | 0.00 | 100 | 1022.7 |
| 20260903015306 | 54 | 341 | 0.0 | 0.0 | 0.00 | 0.00 | 0.00 | 100 | 1022.7 |
| 20260903014304 | 54 | 341 | 0.0 | 0.0 | 0.00 | 0.00 | 0.00 | 99 | 1022.7 |
| 20260903013803 | 54 | 341 | 0.0 | 0.0 | 0.00 | 0.00 | 0.00 | 99 | 1022.7 |
| 20260903013303 | 54 | 341 | 0.0 | 0.0 | 0.00 | 0.00 | 0.00 | 99 | 1022.7 |
| 20260903012803 | 54 | 341 | 0.0 | 0.0 | 0.00 | 0.00 | 0.00 | 99 | 1022.7 |
| 20260903012306 | 54 | 341 | 0.0 | 0.0 | 0.00 | 0.00 | 0.00 | 99 | 1022.7 |
| 20260903011804 | 54 | 341 | 0.0 | 0.0 | 0.00 | 0.00 | 0.00 | 99 | 1022.7 |
| 20260903011304 | 54 | 341 | 0.0 | 0.0 | 0.00 | 0.00 | 0.00 | 99 | 1022.7 |
| 20260903010804 | 54 | 341 | 0.0 | 0.0 | 0.00 | 0.00 | 0.00 | 98 | 1022.7 |
| 20260903010304 | 54 | 341 | 0.0 | 0.0 | 0.00 | 0.00 | 0.00 | 99 | 1022.6 |
| 20260903005804 | 54 | 341 | 0.0 | 0.0 | 0.00 | 0.00 | 0.00 | 99 | 1022.6 |
| 20260903005306 | 54 | 341 | 0.0 | 0.0 | 0.00 | 0.00 | 0.00 | 98 | 1022.6 |
| 20260903004304 | 55 | 341 | 0.0 | 0.0 | 0.00 | 0.00 | 0.00 | 98 | 1022.6 |
| 20260903003804 | 55 | 341 | 0.0 | 0.0 | 0.00 | 0.00 | 0.00 | 98 | 1022.6 |
| 20260903003303 | 55 | 341 | 0.0 | 0.0 | 0.00 | 0.00 | 0.00 | 98 | 1022.6 |
| 20260903002804 | 55 | 341 | 0.0 | 0.0 | 0.00 | 0.00 | 0.00 | 98 | 1022.6 |
| 20260903002306 | 55 | 341 | 0.0 | 0.0 | 0.00 | 0.00 | 0.00 | 97 | 1022.6 |
| 20260903000803 | 55 | 341 | 0.0 | 0.0 | 0.00 | 0.00 | 0.00 | 97 | 1022.6 |
| 20260902235305 | 55 | 341 | 0.0 | 0.0 | 0.00 | 0.00 | 0.00 | 97 | 1022.6 |
| 20260902234803 | 56 | 341 | 0.0 | 0.0 | 0.00 | 0.00 | 0.00 | 96 | 1022.6 |
| 20260902233804 | 56 | 341 | 0.0 | 0.0 | 0.00 | 0.00 | 0.00 | 96 | 1022.6 |
| 20260902233304 | 56 | 341 | 0.0 | 0.0 | 0.00 | 0.00 | 0.00 | 95 | 1022.5 |
| 20260902232803 | 56 | 341 | 0.0 | 0.0 | 0.00 | 0.00 | 0.00 | 95 | 1022.5 |
| 20260902232306 | 56 | 341 | 0.0 | 0.0 | 0.00 | 0.00 | 0.00 | 95 | 1022.5 |
| 20260902231804 | 56 | 341 | 0.0 | 0.0 | 0.00 | 0.00 | 0.00 | 95 | 1022.5 |
| 20260902231303 | 56 | 341 | 0.0 | 0.0 | 0.00 | 0.00 | 0.00 | 95 | 1022.5 |
| 20260902230804 | 57 | 341 | 0.0 | 0.0 | 0.00 | 0.00 | 0.00 | 95 | 1022.5 |
| 20260902225804 | 57 | 341 | 0.0 | 0.0 | 0.00 | 0.00 | 0.00 | 94 | 1022.5 |
| 20260902225306 | 57 | 341 | 0.0 | 0.0 | 0.00 | 0.00 | 0.00 | 94 | 1022.4 |
| 20260902224804 | 57 | 341 | 0.0 | 0.0 | 0.00 | 0.00 | 0.00 | 94 | 1022.4 |
| 20260902224303 | 57 | 341 | 0.0 | 0.0 | 0.00 | 0.00 | 0.00 | 94 | 1022.4 |
| 20260902223804 | 57 | 341 | 0.0 | 0.0 | 0.00 | 0.00 | 0.00 | 94 | 1022.4 |
| 20260902223304 | 57 | 341 | 0.0 | 0.0 | 0.00 | 0.00 | 0.00 | 93 | 1022.4 |
| 20260902222306 | 58 | 341 | 0.0 | 0.0 | 0.00 | 0.00 | 0.00 | 93 | 1022.3 |
| 20260902221804 | 58 | 341 | 0.0 | 0.0 | 0.00 | 0.00 | 0.00 | 93 | 1022.3 |
| 20260902221303 | 58 | 341 | 0.0 | 0.0 | 0.00 | 0.00 | 0.00 | 93 | 1022.2 |
| 20260902220809 | 58 | 341 | 0.0 | 0.0 | 0.00 | 0.00 | 0.00 | 92 | 1022.2 |
| 20260902215803 | 58 | 341 | 0.0 | 0.0 | 0.00 | 0.00 | 0.00 | 91 | 1022.2 |
| 20260902215306 | 58 | 341 | 0.0 | 0.0 | 0.00 | 0.00 | 0.00 | 91 | 1022.2 |
| 20260902214803 | 59 | 341 | 0.0 | 0.0 | 0.00 | 0.00 | 0.00 | 91 | 1022.2 |
| 20260902214304 | 59 | 341 | 0.0 | 0.0 | 0.00 | 0.00 | 0.00 | 90 | 1022.2 |
| 20260902212803 | 59 | 341 | 0.0 | 0.0 | 0.00 | 0.00 | 0.00 | 90 | 1022.1 |
| 20260902211804 | 59 | 341 | 0.0 | 0.0 | 0.00 | 0.00 | 0.00 | 89 | 1022.1 |
| 20260902210804 | 60 | 341 | 0.0 | 0.0 | 0.00 | 0.00 | 0.00 | 89 | 1022.0 |
| 20260902210303 | 60 | 341 | 0.0 | 0.0 | 0.00 | 0.00 | 0.00 | 89 | 1022.0 |
| 20260902205804 | 60 | 341 | 0.0 | 0.0 | 0.00 | 0.00 | 0.00 | 88 | 1022.0 |
| 20260902205306 | 60 | 341 | 0.0 | 0.0 | 0.00 | 0.00 | 0.00 | 88 | 1021.9 |
| 20260902204804 | 60 | 341 | 0.0 | 0.0 | 0.00 | 0.00 | 0.00 | 88 | 1021.9 |
| 20260902203803 | 61 | 341 | 0.0 | 0.0 | 0.00 | 0.00 | 0.00 | 87 | 1021.9 |
| 20260902203304 | 60 | 341 | 0.0 | 0.0 | 0.00 | 0.00 | 0.00 | 88 | 1021.7 |
| 20260902202803 | 60 | 341 | 0.0 | 0.0 | 0.00 | 0.00 | 0.00 | 87 | 1021.7 |
| 20260902201803 | 60 | 341 | 0.0 | 0.0 | 0.00 | 0.00 | 0.00 | 87 | 1021.7 |
| 20260902201304 | 60 | 341 | 0.0 | 0.0 | 0.00 | 0.00 | 0.00 | 87 | 1021.7 |
| 20260902200803 | 61 | 341 | 0.0 | 0.0 | 0.00 | 0.00 | 0.00 | 87 | 1021.7 |
| 20260902200303 | 61 | 341 | 0.0 | 0.0 | 0.00 | 0.00 | 0.00 | 86 | 1021.7 |
| 20260902195804 | 61 | 341 | 0.0 | 0.0 | 0.00 | 0.00 | 0.00 | 86 | 1021.4 |
| 20260902195306 | 61 | 341 | 0.0 | 0.0 | 0.00 | 0.00 | 0.00 | 86 | 1021.4 |
| 20260902194804 | 61 | 341 | 0.0 | 0.0 | 0.00 | 0.00 | 0.00 | 85 | 1021.4 |
| 20260902194303 | 61 | 341 | 0.0 | 0.0 | 0.00 | 0.00 | 0.00 | 85 | 1021.4 |
| 20260902193804 | 62 | 341 | 0.0 | 0.0 | 0.00 | 0.00 | 0.00 | 85 | 1021.4 |
| 20260902193304 | 62 | 341 | 0.0 | 0.0 | 0.00 | 0.00 | 0.00 | 85 | 1021.4 |
| 20260902192804 | 62 | 341 | 0.0 | 0.0 | 0.00 | 0.00 | 0.00 | 84 | 1021.4 |
| 20260902192306 | 63 | 341 | 0.0 | 0.0 | 0.00 | 0.00 | 0.00 | 84 | 1021.4 |
| 20260902191804 | 63 | 341 | 0.0 | 0.0 | 0.00 | 0.00 | 0.00 | 83 | 1021.4 |
| 20260902191304 | 63 | 341 | 0.0 | 0.0 | 0.00 | 0.00 | 0.00 | 83 | 1021.4 |
| 20260902190804 | 63 | 341 | 0.0 | 0.0 | 0.00 | 0.00 | 0.00 | 82 | 1021.4 |
| 20260902185803 | 63 | 341 | 0.0 | 0.0 | 0.00 | 0.00 | 0.00 | 82 | 1021.2 |
| 20260902185306 | 64 | 341 | 0.0 | 0.0 | 0.00 | 0.00 | 0.00 | 81 | 1021.0 |
| 20260902184803 | 64 | 341 | 0.0 | 0.0 | 0.00 | 0.00 | 0.00 | 81 | 1021.0 |
| 20260902184304 | 64 | 341 | 0.0 | 0.0 | 0.00 | 0.00 | 0.00 | 80 | 1020.8 |
| 20260902183803 | 64 | 341 | 0.0 | 0.0 | 0.00 | 0.00 | 0.00 | 80 | 1020.8 |
| 20260902182803 | 65 | 341 | 0.0 | 0.0 | 0.00 | 0.00 | 0.00 | 79 | 1020.8 |
| 20260902182306 | 66 | 341 | 0.0 | 0.0 | 0.00 | 0.00 | 0.00 | 78 | 1020.8 |
| 20260902181803 | 66 | 341 | 0.0 | 0.0 | 0.00 | 0.00 | 0.00 | 76 | 1020.8 |
| 20260902180804 | 67 | 341 | 0.0 | 0.0 | 0.00 | 0.00 | 0.00 | 74 | 1020.6 |
| 20260902180304 | 68 | 341 | 0.0 | 0.0 | 0.00 | 0.00 | 0.00 | 74 | 1020.6 |
| 20260902175803 | 69 | 341 | 0.0 | 0.0 | 0.00 | 0.00 | 0.00 | 71 | 1020.6 |
| 20260902175307 | 69 | 341 | 0.0 | 0.0 | 0.00 | 0.00 | 0.00 | 71 | 1020.3 |
| 20260902174803 | 70 | 341 | 0.0 | 0.0 | 0.00 | 0.00 | 0.00 | 69 | 1020.3 |
| 20260902174303 | 70 | 341 | 0.0 | 0.0 | 0.00 | 0.00 | 0.00 | 68 | 1020.3 |
| 20260902173303 | 71 | 341 | 0.0 | 0.0 | 0.00 | 0.00 | 0.00 | 64 | 1020.3 |
| 20260902172804 | 72 | 341 | 0.0 | 2.0 | 0.00 | 0.00 | 0.00 | 64 | 1020.3 |
| 20260902172308 | 72 | 341 | 0.0 | 1.0 | 0.00 | 0.00 | 0.00 | 62 | 1020.3 |
| 20260902171803 | 72 | 341 | 0.0 | 2.0 | 0.00 | 0.00 | 0.00 | 62 | 1020.3 |
| 20260902171303 | 73 | 36 | 0.0 | 1.0 | 0.00 | 0.00 | 0.00 | 61 | 1020.3 |
| 20260902170303 | 73 | 27 | 0.0 | 2.0 | 0.00 | 0.00 | 0.00 | 59 | 1020.2 |
| 20260902165308 | 74 | 299 | 0.0 | 0.0 | 0.00 | 0.00 | 0.00 | 58 | 1020.2 |
| 20260902164804 | 74 | 336 | 1.0 | 5.0 | 0.00 | 0.00 | 0.00 | 57 | 1020.2 |
| 20260902164303 | 74 | 256 | 1.0 | 2.0 | 0.00 | 0.00 | 0.00 | 57 | 1020.2 |
| 20260902163803 | 75 | 317 | 1.0 | 5.0 | 0.00 | 0.00 | 0.00 | 57 | 1020.3 |
| 20260902163304 | 75 | 302 | 0.0 | 6.0 | 0.00 | 0.00 | 0.00 | 56 | 1020.3 |
| 20260902162804 | 76 | 262 | 0.0 | 3.0 | 0.00 | 0.00 | 0.00 | 55 | 1020.3 |
| 20260902162307 | 76 | 302 | 0.0 | 5.0 | 0.00 | 0.00 | 0.00 | 54 | 1020.2 |
| 20260902161804 | 77 | 321 | 1.0 | 5.0 | 0.00 | 0.00 | 0.00 | 53 | 1020.2 |
| 20260902161304 | 77 | 293 | 0.0 | 1.0 | 0.00 | 0.00 | 0.00 | 54 | 1020.2 |
| 20260902160803 | 77 | 297 | 0.0 | 5.0 | 0.00 | 0.00 | 0.00 | 54 | 1020.2 |
| 20260902160303 | 77 | 257 | 1.0 | 5.0 | 0.00 | 0.00 | 0.00 | 53 | 1020.1 |
| 20260902155804 | 77 | 264 | 0.0 | 9.0 | 0.00 | 0.00 | 0.00 | 54 | 1020.1 |
| 20260902154803 | 77 | 276 | 0.0 | 0.0 | 0.00 | 0.00 | 0.00 | 53 | 1020.1 |
| 20260902154304 | 77 | 272 | 0.0 | 1.0 | 0.00 | 0.00 | 0.00 | 55 | 1020.1 |
| 20260902153804 | 77 | 238 | 0.0 | 1.0 | 0.00 | 0.00 | 0.00 | 54 | 1020.1 |
| 20260902152307 | 77 | 42 | 1.0 | 5.0 | 0.00 | 0.00 | 0.00 | 54 | 1020.1 |
| 20260902150803 | 78 | 38 | 0.0 | 5.0 | 0.00 | 0.00 | 0.00 | 52 | 1020.2 |
| 20260902150304 | 79 | 302 | 0.0 | 1.0 | 0.00 | 0.00 | 0.00 | 52 | 1020.2 |
| 20260902145803 | 79 | 316 | 0.0 | 6.0 | 0.00 | 0.00 | 0.00 | 53 | 1020.2 |
| 20260902145305 | 79 | 281 | 1.0 | 5.0 | 0.00 | 0.00 | 0.00 | 52 | 1020.2 |
| 20260902144803 | 80 | 298 | 0.0 | 2.0 | 0.00 | 0.00 | 0.00 | 51 | 1020.2 |
| 20260902144304 | 80 | 266 | 1.0 | 5.0 | 0.00 | 0.00 | 0.00 | 51 | 1020.2 |
| 20260902143804 | 81 | 317 | 2.0 | 8.0 | 0.00 | 0.00 | 0.00 | 50 | 1020.3 |
| 20260902143303 | 82 | 3 | 1.0 | 3.0 | 0.00 | 0.00 | 0.00 | 48 | 1020.3 |
| 20260902142306 | 81 | 315 | 0.0 | 5.0 | 0.00 | 0.00 | 0.00 | 51 | 1020.3 |
| 20260902141804 | 81 | 282 | 1.0 | 6.0 | 0.00 | 0.00 | 0.00 | 49 | 1020.3 |
| 20260902141304 | 81 | 287 | 1.0 | 5.0 | 0.00 | 0.00 | 0.00 | 49 | 1020.3 |
| 20260902140804 | 82 | 357 | 1.0 | 8.0 | 0.00 | 0.00 | 0.00 | 50 | 1020.3 |
| 20260902140304 | 82 | 329 | 0.0 | 3.0 | 0.00 | 0.00 | 0.00 | 50 | 1020.3 |
| 20260902135803 | 81 | 288 | 0.0 | 2.0 | 0.00 | 0.00 | 0.00 | 51 | 1020.3 |
| 20260902135306 | 80 | 210 | 1.0 | 5.0 | 0.00 | 0.00 | 0.00 | 52 | 1020.3 |
| 20260902134804 | 79 | 320 | 1.0 | 6.0 | 0.00 | 0.00 | 0.00 | 53 | 1020.3 |
| 20260902134303 | 79 | 298 | 2.0 | 7.0 | 0.00 | 0.00 | 0.00 | 52 | 1020.3 |
| 20260902133803 | 79 | 281 | 0.0 | 3.0 | 0.00 | 0.00 | 0.00 | 53 | 1020.3 |
| 20260902133304 | 80 | 324 | 0.0 | 3.0 | 0.00 | 0.00 | 0.00 | 52 | 1020.2 |
| 20260902132803 | 81 | 336 | 0.0 | 3.0 | 0.00 | 0.00 | 0.00 | 51 | 1020.2 |
| 20260902132306 | 82 | 10 | 0.0 | 5.0 | 0.00 | 0.00 | 0.00 | 48 | 1020.2 |
| 20260902131804 | 82 | 24 | 0.0 | 0.0 | 0.00 | 0.00 | 0.00 | 50 | 1020.2 |
| 20260902131303 | 82 | 0 | 0.0 | 2.0 | 0.00 | 0.00 | 0.00 | 50 | 1020.3 |
| 20260902125804 | 81 | 316 | 1.0 | 3.0 | 0.00 | 0.00 | 0.00 | 50 | 1020.5 |
| 20260902125305 | 80 | 58 | 1.0 | 6.0 | 0.00 | 0.00 | 0.00 | 50 | 1020.5 |
| 20260902124804 | 80 | 275 | 0.0 | 2.0 | 0.00 | 0.00 | 0.00 | 52 | 1020.5 |
| 20260902123803 | 80 | 32 | 1.0 | 3.0 | 0.00 | 0.00 | 0.00 | 52 | 1020.5 |
| 20260902123304 | 79 | 278 | 2.0 | 5.0 | 0.00 | 0.00 | 0.00 | 52 | 1020.7 |
| 20260902122803 | 80 | 345 | 0.0 | 2.0 | 0.00 | 0.00 | 0.00 | 51 | 1020.7 |
| 20260902122305 | 81 | 253 | 1.0 | 7.0 | 0.00 | 0.00 | 0.00 | 49 | 1020.7 |
| 20260902121803 | 80 | 130 | 0.0 | 0.0 | 0.00 | 0.00 | 0.00 | 50 | 1020.7 |
| 20260902121303 | 79 | 28 | 1.0 | 3.0 | 0.00 | 0.00 | 0.00 | 50 | 1020.7 |
| 20260902120304 | 77 | 38 | 1.0 | 3.0 | 0.00 | 0.00 | 0.00 | 55 | 1020.7 |
| 20260902115803 | 77 | 39 | 0.0 | 2.0 | 0.00 | 0.00 | 0.00 | 56 | 1020.7 |
| 20260902114804 | 78 | 34 | 2.0 | 5.0 | 0.00 | 0.00 | 0.00 | 54 | 1020.6 |
| 20260902114304 | 79 | 283 | 0.0 | 2.0 | 0.00 | 0.00 | 0.00 | 52 | 1020.6 |
| 20260902113804 | 79 | 275 | 0.0 | 0.0 | 0.00 | 0.00 | 0.00 | 52 | 1020.6 |
| 20260902113304 | 79 | 275 | 0.0 | 2.0 | 0.00 | 0.00 | 0.00 | 52 | 1020.8 |
| 20260902112803 | 80 | 337 | 0.0 | 3.0 | 0.00 | 0.00 | 0.00 | 53 | 1020.8 |
| 20260902111804 | 80 | 335 | 1.0 | 3.0 | 0.00 | 0.00 | 0.00 | 50 | 1021.1 |
| 20260902110804 | 81 | 69 | 0.0 | 2.0 | 0.00 | 0.00 | 0.00 | 52 | 1021.1 |
| 20260902110304 | 81 | 66 | 0.0 | 5.0 | 0.00 | 0.00 | 0.00 | 52 | 1021.1 |
| 20260902105803 | 82 | 64 | 0.0 | 0.0 | 0.00 | 0.00 | 0.00 | 52 | 1021.4 |
| 20260902105306 | 81 | 64 | 0.0 | 5.0 | 0.00 | 0.00 | 0.00 | 53 | 1021.4 |
| 20260902104303 | 80 | 205 | 0.0 | 0.0 | 0.00 | 0.00 | 0.00 | 55 | 1021.5 |
| 20260902103804 | 79 | 230 | 0.0 | 0.0 | 0.00 | 0.00 | 0.00 | 58 | 1021.6 |
| 20260902103304 | 78 | 230 | 0.0 | 0.0 | 0.00 | 0.00 | 0.00 | 56 | 1021.6 |
| 20260902102307 | 76 | 136 | 0.0 | 0.0 | 0.00 | 0.00 | 0.00 | 60 | 1021.8 |
| 20260902101804 | 77 | 171 | 0.0 | 0.0 | 0.00 | 0.00 | 0.00 | 61 | 1021.8 |
| 20260902101304 | 77 | 171 | 0.0 | 1.0 | 0.00 | 0.00 | 0.00 | 59 | 1021.8 |
| 20260902100804 | 77 | 169 | 1.0 | 5.0 | 0.00 | 0.00 | 0.00 | 61 | 1021.8 |
| 20260902100304 | 76 | 117 | 0.0 | 0.0 | 0.00 | 0.00 | 0.00 | 61 | 1021.8 |
| 20260902095306 | 75 | 175 | 0.0 | 0.0 | 0.00 | 0.00 | 0.00 | 63 | 1021.8 |
| 20260902094804 | 74 | 175 | 0.0 | 1.0 | 0.00 | 0.00 | 0.00 | 64 | 1022.0 |
| 20260902094304 | 74 | 327 | 0.0 | 0.0 | 0.00 | 0.00 | 0.00 | 67 | 1022.0 |
| 20260902093804 | 73 | 195 | 0.0 | 0.0 | 0.00 | 0.00 | 0.00 | 66 | 1022.0 |
| 20260902093303 | 72 | 73 | 0.0 | 0.0 | 0.00 | 0.00 | 0.00 | 68 | 1022.0 |
| 20260902092804 | 71 | 73 | 0.0 | 0.0 | 0.00 | 0.00 | 0.00 | 69 | 1022.0 |
| 20260902092305 | 71 | 73 | 0.0 | 0.0 | 0.00 | 0.00 | 0.00 | 69 | 1022.0 |
| 20260902091303 | 68 | 73 | 0.0 | 0.0 | 0.00 | 0.00 | 0.00 | 74 | 1022.0 |
| 20260902090304 | 66 | 73 | 0.0 | 0.0 | 0.00 | 0.00 | 0.00 | 78 | 1022.0 |
| 20260902084804 | 65 | 49 | 0.0 | 1.0 | 0.00 | 0.00 | 0.00 | 79 | 1022.0 |
| 20260902084303 | 65 | 127 | 0.0 | 0.0 | 0.00 | 0.00 | 0.00 | 78 | 1022.1 |
| 20260902083303 | 64 | 80 | 0.0 | 0.0 | 0.00 | 0.00 | 0.00 | 80 | 1022.1 |
| 20260902082804 | 64 | 94 | 0.0 | 0.0 | 0.00 | 0.00 | 0.00 | 80 | 1022.1 |
| 20260902082309 | 64 | 91 | 0.0 | 0.0 | 0.00 | 0.00 | 0.00 | 78 | 1022.1 |